Stations météo

réclame
Mon MeteoGroup
Edsbyn, Suède (2336): Température de l'air & dewpoint: 12.02.2019 01:00:00 - 18.02.2019 01:00:00 (CET)Edsbyn, Suède (2336): Vitesse du vent: 12.02.2019 01:00:00 - 18.02.2019 01:00:00 (CET)Edsbyn, Suède (2336): Direction du vent: 12.02.2019 01:00:00 - 18.02.2019 01:00:00 (CET)Edsbyn, Suède (2336): reduced air pressure: 12.02.2019 01:00:00 - 18.02.2019 01:00:00 (CET)Edsbyn, Suède (2336): visibility: 12.02.2019 01:00:00 - 18.02.2019 01:00:00 (CET)
Date & Time tt [°C] td [°C] ff [km/h] ff [knt] dd ppp [hPa] vv [km]
18.02.2019 01:00:00 - - - - - - -
18.02.2019 00:00:00 -0,1 -2,8 18 10 SE 1016,2 45
17.02.2019 23:00:00 -0,5 -3,0 11 6 SE 1017,1 50
17.02.2019 22:00:00 0,0 -3,5 18 10 SE 1018,0 45
17.02.2019 21:00:00 -0,5 -3,9 11 6 SE 1018,7 45
17.02.2019 20:00:00 -1,3 -4,8 0 0 N 1018,9 50
17.02.2019 19:00:00 -1,6 -4,9 7 4 S 1019,3 50
17.02.2019 18:00:00 -2,7 -5,3 0 0 N 1019,9 40
17.02.2019 17:00:00 -2,8 -5,9 4 2 SSE 1019,7 40
17.02.2019 16:00:00 -0,6 -6,0 7 4 ESE 1019,5 50
17.02.2019 15:00:00 2,9 -6,0 11 6 S 1019,2 40
17.02.2019 14:00:00 4,6 -6,3 0 0 N 1018,9 40
17.02.2019 13:00:00 3,5 -5,4 7 4 WNW 1018,6 35
17.02.2019 12:00:00 2,8 -5,1 14 8 NW 1018,4 40
17.02.2019 11:00:00 2,0 -5,4 11 6 NW 1018,2 40
17.02.2019 10:00:00 0,6 -5,8 11 6 NW 1017,7 35
17.02.2019 09:00:00 -0,6 -6,0 4 2 SE 1016,9 35
17.02.2019 08:00:00 -0,3 -6,1 11 6 WNW 1015,7 40
17.02.2019 07:00:00 -0,6 -6,6 14 8 WNW 1015,5 45
17.02.2019 06:00:00 -0,5 -6,5 11 6 NW 1014,9 50
17.02.2019 05:00:00 -0,2 -6,2 14 8 W 1014,1 50
17.02.2019 04:00:00 0,2 -6,0 11 6 NW 1013,8 45
17.02.2019 03:00:00 0,5 -5,5 11 6 WNW 1012,8 50
17.02.2019 02:00:00 1,4 -5,3 14 8 WNW 1011,9 50
17.02.2019 01:00:00 1,6 -5,8 22 12 WNW 1010,4 50
17.02.2019 00:00:00 2,0 -6,1 14 8 WNW 1009,8 50
16.02.2019 23:00:00 2,2 -5,7 14 8 WNW 1009,3 45
16.02.2019 22:00:00 2,6 -5,3 14 8 W 1008,3 40
16.02.2019 21:00:00 2,6 -5,1 14 8 WNW 1007,0 45
16.02.2019 20:00:00 3,2 -5,0 14 8 W 1006,9 45
16.02.2019 19:00:00 3,4 -4,5 14 8 W 1006,3 50
16.02.2019 18:00:00 3,7 -4,5 11 6 W 1005,9 50
16.02.2019 17:00:00 4,1 -3,0 11 6 W 1004,8 50
16.02.2019 16:00:00 5,1 -2,5 18 10 W 1004,1 50
16.02.2019 15:00:00 5,9 -2,0 14 8 W 1003,1 50
16.02.2019 14:00:00 6,5 -1,4 14 8 W 1003,2 50
16.02.2019 13:00:00 4,2 0,0 7 4 W 1002,4 45
16.02.2019 12:00:00 -1,1 -1,1 0 0 N 1002,2 40
16.02.2019 11:00:00 -2,1 -2,1 4 2 WNW 1002,8 40
16.02.2019 10:00:00 -3,4 -3,5 4 2 NNW 1002,7 50
16.02.2019 09:00:00 -5,3 -5,6 4 2 NW 1002,4 45
16.02.2019 08:00:00 -6,7 -7,2 0 0 N 1002,1 50
16.02.2019 07:00:00 -7,1 -7,8 0 0 N 1001,8 45
16.02.2019 06:00:00 -7,1 -7,5 - - N 1001,7 2,6
16.02.2019 05:00:00 -6,4 -6,8 - - N 1002,0 -
16.02.2019 04:00:00 -5,9 -6,2 - - WNW 1002,9 -
16.02.2019 03:00:00 -6,5 -6,9 - - N 1003,7 30
16.02.2019 02:00:00 -5,5 -5,6 - - NW 1004,8 -
16.02.2019 01:00:00 -5,2 -5,3 - - NNW 1005,8 -
16.02.2019 00:00:00 -6,2 -6,2 - - N 1006,8 -
15.02.2019 23:00:00 -4,1 -4,1 - - N 1007,9 1,5
15.02.2019 22:00:00 -2,8 -2,9 - - NW 1009,2 10
15.02.2019 21:00:00 -1,8 -1,9 0 0 N 1010,1 40
15.02.2019 20:00:00 -0,8 -1,5 4 2 WNW 1011,2 45
15.02.2019 19:00:00 0,2 -1,2 4 2 NNW 1012,3 50
15.02.2019 18:00:00 0,6 -1,3 4 2 S 1012,7 50
15.02.2019 17:00:00 3,4 0,1 4 2 SE 1013,4 50
15.02.2019 16:00:00 3,9 0,1 11 6 SE 1013,7 45
15.02.2019 15:00:00 3,9 -0,9 4 2 S 1013,8 45
15.02.2019 14:00:00 6,2 0,5 7 4 S 1014,1 35
15.02.2019 13:00:00 4,7 -0,1 4 2 SE 1014,3 40
15.02.2019 12:00:00 5,9 -0,6 4 2 ESE 1014,4 45
15.02.2019 11:00:00 1,3 -1,8 4 2 NE 1014,5 45
15.02.2019 10:00:00 0,1 -2,0 4 2 SSE 1014,6 7
15.02.2019 09:00:00 -1,6 -3,3 0 0 N 1014,4 45
15.02.2019 08:00:00 -2,4 -3,8 4 2 N 1014,2 22
15.02.2019 07:00:00 -1,9 -3,6 0 0 N 1014,4 24
15.02.2019 06:00:00 -1,4 -3,4 0 0 N 1014,6 45
15.02.2019 05:00:00 -2,0 -4,7 4 2 SSW 1014,8 45
15.02.2019 04:00:00 0,5 -3,8 7 4 ESE 1014,7 45
15.02.2019 03:00:00 3,8 -3,0 7 4 SW 1014,5 45
15.02.2019 02:00:00 5,6 -2,5 11 6 WSW 1014,2 30
15.02.2019 01:00:00 6,4 -2,2 11 6 W 1013,9 40
15.02.2019 00:00:00 5,0 -1,7 7 4 WSW 1013,3 30
14.02.2019 23:00:00 2,5 -2,2 0 0 N 1013,3 30
14.02.2019 22:00:00 6,7 -2,2 11 6 WSW 1012,7 35
14.02.2019 21:00:00 7,1 -1,6 14 8 WSW 1012,6 45
14.02.2019 20:00:00 7,3 -0,4 11 6 WSW 1011,6 50
14.02.2019 19:00:00 0,6 0,6 11 6 WSW 1010,9 50
14.02.2019 18:00:00 -3,5 -3,8 4 2 N 1010,8 40
14.02.2019 17:00:00 -1,2 -2,9 0 0 N 1010,4 40
14.02.2019 16:00:00 0,4 -2,3 4 2 SSE 1010,0 45
14.02.2019 15:00:00 1,1 -1,0 11 6 N 1010,2 45
14.02.2019 14:00:00 3,4 -0,4 7 4 NNW 1009,2 50
14.02.2019 13:00:00 1,3 -1,4 4 2 N 1009,4 20
14.02.2019 12:00:00 0,8 -1,4 0 0 N 1010,2 16
14.02.2019 11:00:00 -1,0 -2,4 4 2 SE 1010,7 12
14.02.2019 10:00:00 -1,0 -1,6 4 2 SSE 1011,6 9
14.02.2019 09:00:00 -2,0 -2,1 4 2 NNE 1013,8 11
14.02.2019 08:00:00 -2,3 -2,4 0 0 N 1014,1 7
14.02.2019 07:00:00 -1,5 -1,6 0 0 N 1014,4 9
14.02.2019 06:00:00 -1,1 -1,7 4 2 N 1014,7 11
14.02.2019 05:00:00 0,1 -1,0 0 0 N 1015,5 14
14.02.2019 04:00:00 -0,5 -1,3 4 2 NW 1016,0 17
14.02.2019 03:00:00 -1,1 -1,9 4 2 NNW 1017,4 16
14.02.2019 02:00:00 -1,8 -2,8 0 0 N 1017,9 16
14.02.2019 01:00:00 -2,9 -3,9 0 0 N 1017,8 16
14.02.2019 00:00:00 -1,8 -3,4 0 0 N 1017,2 19
13.02.2019 23:00:00 1,1 -2,1 11 6 E 1016,1 19
13.02.2019 22:00:00 3,8 -1,8 14 8 W 1014,9 20
13.02.2019 21:00:00 4,7 -2,4 7 4 WSW 1013,6 20
13.02.2019 20:00:00 5,2 -2,2 22 12 WNW 1011,9 23
13.02.2019 19:00:00 5,3 -1,6 22 12 WNW 1009,9 21
13.02.2019 18:00:00 5,8 -1,4 36 19 NW 1008,3 28
13.02.2019 17:00:00 5,7 -0,8 29 16 WNW 1007,2 45
13.02.2019 16:00:00 6,2 -0,3 32 18 WNW 1005,9 45
13.02.2019 15:00:00 6,8 -0,2 32 18 W 1004,8 50
13.02.2019 14:00:00 6,0 0,3 22 12 W 1004,5 50
13.02.2019 13:00:00 - - - - - - -
13.02.2019 12:00:00 4,0 0,2 11 6 W 1004,3 30
13.02.2019 11:00:00 -1,9 -2,0 0 0 N 1004,0 40
13.02.2019 10:00:00 -7,4 -8,2 0 0 N 1003,5 40
13.02.2019 09:00:00 -8,8 -9,7 7 4 NNW 1003,0 40
13.02.2019 08:00:00 -8,8 -9,6 4 2 NNW 1002,3 25
13.02.2019 07:00:00 -6,6 -7,0 4 2 WNW 1001,6 28
13.02.2019 06:00:00 -5,7 -6,1 4 2 NW 1001,5 50
13.02.2019 05:00:00 -5,6 -6,0 4 2 NW 1001,1 50
13.02.2019 04:00:00 -5,7 -6,1 4 2 SW 1001,5 50
13.02.2019 03:00:00 -5,5 -5,9 4 2 WSW 1001,9 11
13.02.2019 02:00:00 -6,7 -7,1 4 2 N 1002,6 50
13.02.2019 01:00:00 -6,6 -6,9 0 0 N 1003,8 24
13.02.2019 00:00:00 -6,4 -6,7 4 2 NW 1005,7 29
12.02.2019 23:00:00 -6,7 -7,1 4 2 W 1007,0 35
12.02.2019 22:00:00 -6,7 -7,0 0 0 N 1007,9 29
12.02.2019 21:00:00 -6,9 -7,6 0 0 N 1009,0 50
12.02.2019 20:00:00 -6,3 -6,8 4 2 NNW 1010,0 50
12.02.2019 19:00:00 -5,9 -6,4 4 2 NE 1011,1 50
12.02.2019 18:00:00 -5,6 -6,6 0 0 N 1011,9 50
12.02.2019 17:00:00 -4,8 -7,2 4 2 S 1012,3 50
12.02.2019 16:00:00 -2,7 -5,8 4 2 SW 1012,5 50
12.02.2019 15:00:00 0,5 -4,7 11 6 W 1012,8 50
12.02.2019 14:00:00 0,6 -5,0 11 6 W 1012,7 35
12.02.2019 13:00:00 - - - - - - -
12.02.2019 12:00:00 -0,2 -5,2 14 8 WNW 1012,5 35
12.02.2019 11:00:00 -0,5 -5,7 14 8 WNW 1012,0 40
12.02.2019 10:00:00 -2,3 -6,7 7 4 NW 1011,7 30
12.02.2019 09:00:00 -4,3 -7,2 11 6 NNW 1011,2 45
12.02.2019 08:00:00 -4,8 -7,9 11 6 NNW 1010,4 50
12.02.2019 07:00:00 -4,9 -7,3 7 4 NNW 1009,7 50
12.02.2019 06:00:00 -8,1 -9,6 4 2 W 1009,3 45
12.02.2019 05:00:00 -5,3 -7,1 4 2 NNW 1009,1 50
12.02.2019 04:00:00 -3,4 -6,4 14 8 NNW 1008,8 50
12.02.2019 03:00:00 -5,7 -6,0 11 6 NNW 1008,2 50
12.02.2019 02:00:00 -10,6 -11,9 4 2 WSW 1008,1 50
12.02.2019 01:00:00 -8,3 -9,4 4 2 N 1008,0 50

tt = Température de l'air
td = dewpoint
ff = Vitesse du vent
dd = Direction du vent
ppp = reduced air pressure
vv = visibility

stations d'obs. à proximité